RH
57 60 73 68 53 45 41 32 33 49 53 40 37 31 42 38 34 31 28 26 30 41 42 42 44 43 40 38 36 34 32 30 29 30 32 32 31 32 33 36 36 34 35 34
48 48 64 69 62 50 44 40 38 47 50 32 32 25 33 37 40 40 40 40 44 47 50 54 56 54 51 47 44 42 40 38 36 33 33 35 36 38 40 43 42 42 40 37
49 48 56 59 60 57 50 48 52 49 51 37 30 22 27 37 38 40 43 49 52 56 58 62 60 60 58 53 51 48 46 46 45 43 43 44 46 48 50 49 48 43 43 46
52 54 62 66 60 68 58 60 52 49 48 44 45 19 26 34 38 42 48 51 56 60 63 66 67 65 60 56 54 53 53 52 50 50 51 53 53 56 56 51 47 44 42 44
61 58 65 66 70 80 68 69 65 60 60 55 47 44 16 23 37 52 54 55 61 66 70 69 63 64 64 61 60 59 57 56 57 57 58 61 64 61 54 53 50 50 60 66
70 74 68 75 83 86 77 73 81 82 78 58 59 67 17 35 34 44 53 61 64 68 70 67 63 67 66 66 65 63 61 60 62 66 69 68 62 60 57 58 78 81 73 81
88 83 81 75 71 75 80 76 86 94 100 63 75 71 29 34 34 42 48 55 58 63 66 73 73 69 68 68 69 66 64 69 72 77 76 70 64 64 63 82 96 86 67 60
73 69 74 70 71 86 81 86 72 96 92 70 75 46 43 51 48 50 58 64 64 64 70 71 69 72 77 73 69 77 88 85 85 84 80 76 95 93 98 98 58 64 66 56
82 72 75 82 82 86 86 90 95 100 91 95 63 46 49 52 57 58 62 65 65 66 69 73 71 67 87 94 95 96 99 98 96 100 95 88 88 84 67 54 62 55 60 64
91 83 78 82 94 95 91 97 99 99 92 88 57 67 69 74 72 64 62 62 67 66 68 69 72 85 95 99 89 90 84 91 99 99 98 98 79 73 67 73 85 79 87 78
75 71 67 71 86 100 97 93 98 100 94 92 76 70 60 73 68 63 70 68 76 81 84 83 85 94 98 98 99 98 95 98 98 92 95 95 81 88 86 82 79 70 61 70
74 65 55 57 65 71 86 98 98 99 93 100 100 86 82 88 84 70 73 75 86 98 97 92 91 100 100 100 100 100 100 100 94 81 82 81 98 93 77 73 74 58 44 49
62 77 72 75 100 87 95 94 94 97 99 98 100 94 100 100 99 95 94 92 94 96 87 71 94 100 100 100 100 100 100 100 100 89 80 86 88 74 51 49 47 44 65 75
94 96 100 100 100 84 89 99 100 100 100 100 98 97 100 100 100 95 90 85 96 93 63 73 99 100 100 100 100 95 100 100 98 98 88 78 48 42 51 41 35 47 94 80
100 87 100 100 100 100 100 98 100 100 100 98 99 97 94 100 100 98 100 98 98 99 100 100 100 100 100 100 100 99 100 99 97 96 88 64 50 45 39 37 61 74 49 35
86 86 100 97 100 100 96 78 99 100 100 100 100 81 100 100 100 98 100 100 100 100 100 100 100 100 96 94 97 100 100 100 94 82 70 54 41 43 48 44 37 31 29 51
98 94 98 100 100 100 88 76 94 100 100 100 94 89 98 100 100 96 99 100 100 97 99 96 95 96 90 87 89 95 92 78 61 66 60 47 48 50 46 49 67 65 71 76
94 95 96 97 100 99 89 75 84 100 100 100 95 84 81 84 84 81 83 89 90 85 94 90 88 81 66 61 62 55 56 58 65 58 53 53 52 80 88 82 76 69 72 80
75 84 82 85 76 78 64 72 74 70 73 75 77 80 78 73 66 64 78 78 88 100 99 96 96 74 44 34 28 36 52 71 70 68 68 64 91 100 88 65 81 82 86 95
58 64 63 83 94 88 54 66 67 57 56 44 43 46 53 61 63 66 68 63 61 62 59 60 54 35 23 27 39 48 61 83 81 72 71 88 100 100 70 77 89 96 98 76
51 48 61 86 100 78 68 42 37 36 26 18 20 26 33 43 49 56 64 51 33 44 53 35 31 40 53 77 99 98 97 93 86 76 81 92 79 78 90 75 94 100 73 87
59 62 78 89 100 73 50 31 16 15 11 11 11 22 24 30 61 74 71 54 80 80 84 100 100 100 100 100 93 88 92 99 72 68 85 98 100 100 89 87 100 75 88 87
58 70 76 69 63 66 56 46 11 13 12 13 15 13 13 16 19 52 73 77 90 99 100 100 100 87 79 78 82 91 81 62 62 72 98 100 100 92 92 99 94 93 100 92
59 75 80 84 47 65 81 45 14 16 17 18 25 25 21 17 19 37 82 88 96 98 98 100 91 68 62 78 79 52 56 46 58 78 93 95 89 100 100 100 100 100 100 100
67 76 63 46 42 70 72 38 24 18 20 23 17 16 17 24 24 31 97 100 100 100 91 52 38 33 30 31 34 35 39 39 54 64 84 97 100 100 100 100 100 100 100 100
51 51 60 57 87 80 55 36 25 23 24 22 21 24 22 25 27 26 99 100 100 81 57 64 44 38 48 62 80 80 75 90 92 93 100 100 100 100 100 100 100 100 100 100
Wind_Speed
33 31 21 25 29 29 28 29 30 28 30 31 31 31 31 36 37 37 38 36 36 38 40 41 40 40 40 42 43 45 46 48 50 51 51 52 56 57 57 56 58 60 61 62
34 32 28 27 29 31 32 34 33 30 30 35 34 34 34 37 38 41 41 42 43 45 46 46 46 46 47 47 47 48 50 53 54 55 56 58 59 59 62 59 60 60 61 61
39 37 34 32 31 34 36 38 36 36 36 38 39 36 38 40 41 43 45 46 47 49 51 50 51 50 50 51 52 53 53 55 57 57 58 60 61 60 61 64 64 58 55 53
45 41 38 37 37 35 38 39 42 43 43 42 42 40 39 41 44 45 46 48 50 53 54 53 54 53 53 55 55 53 53 55 57 59 60 60 60 60 61 59 55 54 54 53
48 49 46 44 42 43 43 45 47 48 47 47 47 49 45 46 45 45 48 52 54 55 55 56 56 57 57 57 56 55 56 57 57 57 57 58 59 59 55 52 50 49 46 46
48 51 56 54 50 49 47 49 51 52 54 54 53 53 44 51 52 55 55 54 54 55 56 57 59 58 57 54 53 55 57 57 56 54 54 53 54 54 51 51 48 46 42 50
49 48 50 53 54 52 50 52 54 58 59 57 56 59 54 58 58 59 60 62 62 59 59 58 56 53 52 55 56 55 53 54 54 52 54 54 50 50 51 51 48 48 55 60
52 50 47 49 50 49 51 54 56 60 60 58 59 61 59 59 60 62 62 62 62 62 60 57 56 57 54 52 51 45 46 49 50 51 52 48 51 48 51 49 58 61 63 60
51 52 48 43 43 46 48 53 47 51 53 57 58 60 60 61 60 61 61 60 61 60 58 56 55 55 48 45 46 45 46 46 49 47 45 43 48 48 49 56 59 59 53 50
53 52 51 50 45 43 40 41 46 51 53 56 58 58 58 57 58 60 62 62 60 58 57 54 53 51 47 43 42 43 44 41 44 42 44 47 48 49 50 46 44 43 40 43
54 55 53 53 52 49 50 52 53 53 53 55 53 55 53 54 56 55 55 54 55 55 54 52 50 47 46 47 45 42 45 47 45 44 44 47 46 47 47 45 42 44 42 44
47 48 51 50 51 54 51 51 55 59 58 59 61 60 59 61 62 60 58 57 56 55 53 50 50 51 49 47 45 46 47 49 44 42 44 44 42 41 43 44 43 43 42 44
45 45 44 46 51 51 51 52 52 53 55 55 55 55 53 53 55 55 54 55 54 51 51 52 52 53 53 50 44 47 43 40 37 41 44 47 44 47 45 42 43 43 42 43
48 45 48 50 58 52 51 51 54 56 54 53 57 57 53 53 56 55 55 56 55 50 49 55 52 52 50 47 45 45 43 42 45 46 48 44 45 41 39 42 44 43 45 49
51 52 49 56 55 51 48 50 47 46 48 50 51 49 49 46 49 46 47 52 53 52 48 43 45 50 44 48 48 41 44 48 48 44 42 42 39 41 43 41 37 43 44 44
56 53 55 56 53 56 57 52 58 57 59 57 49 54 47 49 47 48 48 50 45 42 42 42 46 49 43 38 39 44 46 43 42 40 41 41 42 40 37 39 40 40 39 41
55 55 54 54 55 56 61 53 58 58 54 56 58 54 54 57 60 59 56 54 55 56 55 46 36 30 30 30 32 34 35 37 39 40 40 41 36 36 37 38 37 38 40 42
56 57 58 58 58 61 60 56 56 54 52 50 53 58 61 61 58 53 44 43 41 40 34 32 31 31 32 33 36 37 39 39 39 39 36 35 34 33 36 37 38 39 40 42
45 47 49 51 54 59 59 51 46 49 47 44 43 41 45 47 49 46 38 36 36 37 37 36 37 37 37 38 39 40 39 36 34 34 34 34 36 43 39 40 42 40 40 39
46 49 48 41 44 48 49 36 27 29 38 34 37 39 40 40 40 37 40 39 38 38 38 39 39 38 35 35 36 36 35 33 32 35 34 34 39 41 42 43 42 40 38 36
37 39 41 34 33 32 22 19 23 26 24 22 25 28 32 36 38 36 34 33 32 32 34 34 34 32 32 30 30 31 32 32 34 36 34 34 37 40 39 40 40 38 34 33
33 31 32 32 26 18 13 16 19 13 12 17 22 22 23 24 25 28 28 29 28 28 29 30 30 31 31 31 33 36 37 39 39 38 36 37 37 38 39 40 37 33 32 28
31 26 26 26 22 20 17 20 15 13 14 21 23 25 27 27 27 27 30 31 30 30 31 31 31 30 32 34 34 34 34 35 34 35 36 38 38 39 38 36 33 31 29 28
34 32 31 30 23 23 21 21 24 20 21 24 26 30 33 32 33 31 28 29 30 31 30 26 24 25 26 29 32 34 34 33 33 32 34 36 36 35 35 33 30 29 27 26
35 34 32 28 25 20 19 24 28 29 28 25 29 33 36 35 35 31 27 25 24 22 18 19 23 27 31 33 36 38 35 33 32 34 33 34 34 33 32 30 28 26 25 25
32 31 32 26 25 25 25 29 30 31 31 35 37 38 43 38 37 33 24 25 22 16 18 22 25 28 28 30 31 32 32 32 32 32 30 30 29 29 28 28 26 24 25 25
Wind_Direction
256 256 250 251 257 261 261 265 264 262 264 263 265 262 253 255 259 265 271 271 272 275 277 279 279 281 282 283 284 283 283 282 280 279 279 281 282 285 289 291 293 294 296 298
253 260 261 256 257 258 260 262 263 261 259 263 260 265 262 258 261 261 262 267 272 275 277 278 279 281 282 281 281 283 283 284 285 285 286 288 290 293 293 293 294 295 298 298
251 254 255 261 261 262 265 266 267 264 258 261 266 268 263 264 264 267 269 271 273 276 276 278 278 280 281 282 282 283 285 285 286 286 288 290 290 290 292 295 295 294 294 295
250 253 257 257 261 265 264 267 268 266 267 266 266 276 273 267 266 268 270 274 274 275 277 279 281 282 282 283 284 284 283 283 284 286 286 288 288 289 291 293 292 293 295 294
253 255 258 263 266 266 265 263 265 270 269 271 271 268 275 272 266 264 267 269 271 275 277 279 281 282 283 283 283 283 281 281 282 283 284 285 288 290 291 291 290 292 295 297
252 255 261 268 268 269 267 266 266 266 266 268 268 268 277 273 276 273 270 269 270 271 273 275 277 279 280 280 280 280 281 281 281 281 285 284 285 288 290 290 291 291 293 299
255 257 261 266 269 268 267 269 267 266 263 269 270 269 280 271 272 273 274 274 274 275 275 277 278 276 273 274 277 278 282 282 284 283 282 284 286 287 286 286 287 290 294 295
260 260 264 266 269 267 265 263 265 259 265 271 268 273 276 272 269 269 271 274 274 275 277 278 277 277 278 279 282 283 283 282 278 277 276 279 279 280 283 289 292 290 290 290
266 265 269 272 270 266 265 265 270 264 262 262 266 270 269 268 268 269 271 273 273 274 275 275 278 280 285 286 285 285 282 279 281 276 279 283 291 296 293 288 287 290 292 294
268 266 269 270 271 266 263 263 264 265 265 266 267 267 269 271 270 269 269 269 269 271 274 278 281 283 285 279 280 284 280 276 271 281 287 284 290 291 291 290 292 293 292 295
276 272 272 274 269 262 262 264 266 264 264 264 266 266 265 265 265 266 267 268 272 274 276 283 287 288 286 286 286 280 273 273 277 286 286 286 288 288 290 292 296 298 298 296
268 272 274 271 271 271 265 261 260 260 262 263 264 265 267 269 269 268 268 271 275 278 278 284 288 289 289 286 284 269 269 281 279 284 286 285 288 291 292 295 294 295 294 292
263 260 261 262 260 265 264 266 266 264 265 267 272 274 275 274 272 271 274 276 276 279 283 286 288 288 288 289 276 277 279 281 284 284 281 282 285 288 293 290 292 295 291 296
261 255 258 254 253 260 263 263 263 268 269 272 274 276 278 277 279 279 280 281 277 277 280 283 283 281 275 275 275 290 285 276 274 274 277 283 292 290 289 292 296 294 287 295
249 247 254 253 255 258 259 262 266 269 271 272 272 270 276 263 261 265 270 267 269 269 271 274 277 270 263 279 290 285 269 269 272 278 288 288 290 290 292 294 288 284 290 294
248 250 252 252 255 260 260 256 263 266 265 267 262 273 259 261 256 254 252 253 249 252 249 255 277 287 298 292 278 267 267 274 280 286 283 286 291 292 291 289 291 292 293 294
250 253 257 257 258 263 262 258 263 268 272 275 274 268 264 265 268 271 273 271 276 280 286 293 292 284 277 276 271 269 276 280 280 280 285 289 286 289 291 292 294 294 295 299
257 261 265 266 264 266 266 265 269 273 275 282 285 281 278 279 284 288 289 287 289 289 288 285 278 275 275 273 273 274 275 278 279 283 283 282 282 286 293 294 297 299 301 303
268 269 272 275 273 271 264 274 280 284 282 288 289 288 285 284 286 289 280 279 274 274 276 276 276 278 276 273 271 271 272 273 275 278 281 283 279 266 294 298 296 298 302 300
271 269 272 274 272 274 277 280 274 269 289 282 285 284 282 281 280 277 278 280 278 274 273 274 274 272 273 270 270 269 269 273 275 276 279 277 283 275 291 292 294 298 297 294
267 274 269 263 261 272 279 269 279 286 295 297 291 287 286 283 281 279 278 274 272 269 269 269 271 273 273 273 274 275 273 273 276 279 278 275 274 278 285 292 295 293 290 292
270 271 265 262 260 277 265 277 274 273 309 326 325 317 328 329 302 286 280 275 270 270 266 270 274 276 276 277 277 276 273 274 277 274 272 274 275 279 289 293 290 286 287 288
256 267 264 263 266 259 259 268 234 268 291 307 314 317 319 329 325 302 282 270 259 262 265 270 274 277 274 273 273 273 275 278 279 276 273 275 278 282 287 287 285 283 283 285
250 260 264 262 266 266 258 261 253 268 284 304 315 319 309 306 321 313 283 271 267 263 268 268 265 275 278 275 272 271 274 276 273 275 275 276 280 283 283 282 281 280 283 283
252 254 258 257 264 260 265 256 258 266 287 299 309 311 309 298 308 312 290 276 266 254 255 270 278 278 275 274 274 276 275 273 272 271 275 277 279 279 278 279 276 280 282 280
253 257 252 261 259 262 255 254 262 271 283 291 294 302 299 296 296 306 287 256 243 244 260 274 294 294 285 281 280 276 274 269 266 271 275 276 277 276 275 276 276 278 282 276